SCP
0 0 0 0 0 0 0 0 0 0 0 0 0 0 0 0 0 0 0 0 0 0 0 0 0 0 0 0 0 0 0 0 0 0 0 0 0 0 0 0 0 0 0
0 0 0 0 0 0 0 0 0 0 0 0 0 0 0 0 0 0 0 0 0 0 0 0 0 0 0 0 0 0 0 0 0 0 0 0 0 0 0 0 0 0 0
0 0 0 0 0 0 0 0 0 0 0 0 0 0 0 0 0 0 0 0 0 0 0 0 0 0 0 0 0 0 0 0 0 0 0 0 0 0 0 0 0 0 0
0 0 0 0 0 0 0 0 0 0 0 0 0 0 0 0 0 0 0 0 0 0 0 0 0 0 0 0 0 0 0 0 0 0 0 0 0 0 0 0 0 0 0
0 0 0 0 0 0 0 0 0 0 0 0 0 0 0 0 0 0 0 0 0 0 0 0 0 0 0 0 0 0 0 0 0 0 0 0 0 0 0 0 0 0 0
0 0 0 0 0 0 0 0 0 0 0 0 0 0 0 0 0 0 0 0 0 0 0 0 0 0 0 0 0 0 0 0 0 0 0 0 0 0 0 0 0 0 0
0 0 0 0 0 0 0 0 0 0 0 0 0 0 0 0 0 0 0 0 0 0 0 0 0 0 0 0 0 0 0 0 0 0 0 0 0 0 0 0 0 0 0
0 0 0 0 0 0 0 0 0 0 0 0 0 0 0 0 0 0 0 0 0 0 0 0 0 0 0 0 0 0 0 0 0 0 0 0 0 0 0 0 0 0 0
0 0 0 0 0 0 0 0 0 0 0 0 0 0 0 0 0 0 0 0 0 0 0 0 0 0 0 0 0 0 0 0 0 0 0 0 0 0 0 0 0 0 0
0 0 0 0 0 0 0 0 0 0 0 0 0 0 0 0 0 0 0 0 0 0 0 0 0 0 0 0 0 0 0 0 0 0 0 0 0 0 0 0 0 0 0
0 0 0 0 0 0 0 0 0 0 0 0 0 0 0 0 0 0 0 0 0 0 0 0 0 0 0 0 0 0 0 0 0 0 0 0 0 0 0 0 0 0 0
0 0 0 0 0 0 0 0 0 0 0 0 0 0 0 0 0 0 0 0 0 0 0 0 0 0 0 0 0 0 0 0 0 0 0 0 0 0 0 0 0 0 0
0 0 0 0 0 0 0 0 0 0 0 0 0 0 0 0 0 0 0 0 0 0 0 0 0 0 0 0 0 0 0 0 0 0 0 0 0 0 0 0 0 0 0
0 0 0 0 0 0 0 0 0 0 0 0 0 0 0 0 0 0 0 0 0 0 0 0 0 0 0 0 0 0 0 0 0 0 0 0 0 0 0 0 0 0 0
0 0 0 0 0 0 0 0 0 0 0 0 0 0 0 0 0 0 0 0 0 0 0 0 0 0 0 0 0 0 0 0 0 0 0 0 0 0 0 0 0 0 0
0 0 0 0 0 0 0 0 0 0 0 0 0 0 0 0 0 0 0 0 0 0 0 0 0 0 0 0 0 0 0 0 0 0 0 0 0 0 0 0 0 0 0
0 0 0 0 0 0 0 0 0 0 0 0 0 0 0 0 0 0 0 0 0 0 0 0 0 0 0 0 0 0 0 0 0 0 0 0 0 0 0 0 0 0 0
0 0 0 0 0 0 0 0 0 0 0 0 0 0 0 0 0 0 0 0 0 0 0 0 0 0 0 0 0 0 0 0 0 0 0 0 0 0 0 0 0 0 0
0 0 0 0 0 0 0 0 0 0 0 0 0 0 0 0 0 0 0 0 0 0 0 0 0 0 0 0 0 0 0 0 0 0 0 0 0 0 0 0 0 0 0
0 0 0 0 0 0 0 0 0 0 0 0 0 0 0 0 0 0 0 0 0 0 0 0 0 0 0 0 0 0 0 0 0 0 0 0 0 0 0 0 0 0 0
0 0 0 0 0 0 0 0 0 0 0 0 0 0 0 0 0 0 0 0 0 0 0 0 0 0 0 0 0 0 0 0 0 0 0 0 0 0 0 0 0 0 0
0 0 0 0 0 0 0 0 0 0 0 0 0 0 0 0 0 0 0 0 0 0 0 0 0 0 0 0 0 0 0 0 0 0 0 0 0 0 0 0 0 0 0
0 0 0 0 0 0 0 0 0 0 0 0 0 0 0 0 0 0 0 0 0 0 0 0 0 0 0 0 0 0 0 0 0 0 0 0 0 0 0 0 0 0 0
0 0 0 0 0 0 0 0 0 0 0 0 0 0 0 0 0 0 0 0 0 0 0 0 0 0 0 0 0 0 0 0 0 0 0 0 0 0 0 0 0 0 0
0 0 0 0 0 0 0 0 0 0 0 0 0 0 0 0 0 0 0 0 0 0 0 0 0 0 0 0 0 0 0 0 0 0 0 0 0 0 0 0 0 0 0
-0 0 0 0 0 0 0 0 0 0 0 0 0 0 0 0 0 0 0 0 0 0 0 0 0 0 0 0 0 0 0 0 0 0 0 0 0 0 0 0 0 0 0
Wind_Speed_500mb
89 86 83 79 77 76 73 69 64 63 63 59 58 55 52 49 47 45 42 39 37 36 35 34 32 30 26 25 24 22 19 18 17 16 16 16 18 17 19 20 19 20 21
92 95 92 88 84 82 79 71 69 71 65 63 59 55 52 50 48 47 44 44 41 40 39 38 36 33 30 28 27 24 22 20 19 19 17 17 19 19 21 21 20 22 23
95 95 97 94 93 88 84 74 73 77 72 65 63 57 53 51 50 49 48 47 45 44 42 40 39 37 32 30 29 27 25 23 21 21 19 21 18 19 22 21 22 25 26
90 94 100 96 95 95 92 87 80 76 71 67 63 59 55 53 51 51 51 49 49 47 45 44 44 41 36 32 32 29 27 25 24 21 21 23 21 19 26 22 22 26 27
88 92 97 100 97 97 99 92 89 83 78 73 67 60 59 54 53 54 55 53 51 50 48 48 47 46 42 35 34 31 31 28 27 26 23 26 22 20 26 25 25 28 30
88 91 95 95 100 100 101 97 96 90 84 77 69 65 60 58 56 56 57 56 55 52 51 51 51 51 47 39 38 36 33 32 29 28 26 28 23 23 27 27 29 31 33
87 90 93 94 100 109 97 99 93 96 92 83 75 67 60 59 59 61 61 61 60 57 56 55 56 58 51 46 44 41 37 36 33 30 32 28 25 25 29 32 31 35 37
87 93 94 98 98 104 95 100 102 102 99 92 86 64 42 52 65 69 68 67 66 63 62 62 61 59 55 52 50 44 42 39 36 34 35 30 28 29 32 33 35 37 40
88 90 96 100 101 99 105 102 111 104 106 99 92 63 25 26 36 62 76 72 71 69 68 66 65 61 59 57 52 49 46 43 37 37 35 31 30 31 35 35 39 41 43
84 91 88 100 102 100 104 107 104 105 103 112 100 97 65 43 25 22 56 78 79 77 74 72 69 65 62 60 55 53 48 45 37 41 35 34 31 34 36 38 42 45 47
83 88 88 97 98 100 111 98 102 95 113 115 113 100 99 74 63 36 29 49 77 84 80 76 71 69 66 62 58 55 50 47 38 41 37 34 33 35 37 40 43 46 49
75 94 88 95 95 95 97 107 110 80 101 114 107 104 97 101 91 72 56 39 42 60 83 79 75 72 69 65 60 55 51 49 43 42 38 35 34 37 37 43 43 47 51
67 89 87 96 96 98 97 94 104 97 104 115 109 116 106 106 84 89 56 48 36 40 42 69 75 73 69 65 61 56 55 49 46 43 41 35 37 38 39 44 45 47 51
56 93 95 92 91 86 96 99 94 94 99 106 105 117 103 107 103 104 82 63 43 39 38 35 55 60 64 65 63 56 56 53 46 44 42 40 37 37 41 42 45 47 51
70 56 77 86 89 82 98 87 91 93 91 100 102 99 103 103 105 94 86 65 67 47 48 44 33 37 47 56 58 59 58 54 48 45 44 41 40 37 41 43 45 47 50
47 43 68 78 78 68 77 86 83 85 86 91 92 96 97 100 103 92 85 69 76 64 49 49 44 40 39 46 52 62 59 51 51 46 45 42 40 39 41 43 44 47 49
26 26 37 56 69 66 75 75 74 82 79 84 84 87 86 81 98 87 84 78 79 72 62 49 43 40 44 45 53 61 57 54 52 46 45 42 39 40 41 42 44 45 48
23 16 15 32 40 45 46 53 63 67 69 74 78 81 82 80 81 81 79 85 84 86 74 69 64 56 53 46 45 52 55 56 50 48 45 43 39 40 38 42 43 45 48
38 22 12 3 12 28 28 32 40 45 50 55 58 59 63 61 70 71 84 84 85 86 75 74 67 62 61 56 52 53 56 54 52 49 45 41 40 40 38 41 42 46 48
52 43 28 19 9 15 23 26 30 35 37 41 42 43 48 52 55 59 65 73 72 79 76 74 69 66 64 60 58 57 58 57 53 49 45 41 41 38 39 41 41 45 47
61 55 46 32 29 15 7 19 26 32 36 38 41 43 46 49 51 54 57 66 68 73 82 80 74 74 71 68 65 62 60 54 51 48 45 42 41 39 39 39 40 44 46
66 61 58 53 49 32 14 10 22 28 34 38 42 43 46 48 50 54 60 66 67 73 80 95 85 88 80 73 67 65 62 59 52 53 48 42 39 39 39 39 38 43 44
68 66 65 64 59 51 30 17 14 24 29 34 38 42 46 48 49 54 59 64 68 70 78 84 89 90 82 78 68 63 65 60 60 49 36 39 39 41 39 37 39 40 39
59 66 64 61 58 54 44 30 15 15 22 28 33 38 44 47 50 52 57 64 74 76 74 76 82 80 69 69 66 64 61 60 55 52 43 39 38 40 37 36 40 36 35
42 45 52 56 55 51 49 40 30 17 8 20 26 32 37 42 46 50 56 62 67 75 77 70 71 69 63 66 64 65 66 65 61 56 46 41 37 35 34 35 35 31 38
50 46 35 40 45 47 45 43 38 31 21 12 8 22 31 35 40 46 54 58 66 70 72 74 74 73 71 70 64 66 66 70 61 49 45 43 37 31 22 31 31 30 34
Wind_Direction_500mb
237 236 234 232 229 229 228 231 231 227 228 236 246 253 256 259 261 260 252 241 235 235 238 241 240 240 232 229 230 233 238 244 257 266 276 289 294 301 303 301 308 312 309
237 239 237 236 233 234 232 231 235 228 233 242 251 250 254 257 256 254 246 239 236 236 236 237 239 239 232 229 231 235 242 249 257 269 280 287 292 303 300 302 313 308 312
238 238 239 236 237 235 234 228 236 233 236 242 249 247 252 255 252 249 242 238 236 236 236 236 236 237 235 230 230 234 243 249 257 267 279 286 286 297 301 301 310 309 314
244 241 239 240 234 234 233 228 229 236 241 244 245 247 252 254 251 246 240 236 235 236 233 233 234 237 238 231 232 235 244 252 259 267 277 280 287 299 292 299 305 308 311
249 244 244 241 233 235 233 231 227 233 239 242 244 245 251 253 249 243 239 235 235 234 233 232 234 237 239 236 237 239 246 251 258 265 273 275 282 292 292 298 304 308 312
246 245 245 244 235 243 236 233 231 231 235 240 241 241 246 250 247 242 239 237 235 234 232 233 232 235 238 235 238 242 247 253 256 265 272 273 280 286 291 298 306 311 313
247 245 245 245 236 240 242 234 233 235 233 233 232 232 239 245 246 242 238 237 236 235 233 232 232 234 238 236 237 242 246 250 258 264 266 273 278 284 293 299 305 311 312
247 245 243 242 243 243 241 234 231 235 228 230 226 226 228 241 242 241 238 237 237 235 234 233 233 235 236 237 238 239 243 247 252 262 267 272 277 285 290 298 304 306 309
247 246 244 243 244 244 245 238 232 235 234 229 228 225 201 220 232 240 239 238 237 235 234 233 234 234 235 236 237 237 240 244 249 259 265 272 276 284 291 300 302 304 307
247 245 242 244 243 242 247 245 237 237 232 233 227 230 225 227 204 224 232 232 233 233 233 233 233 233 235 236 236 239 240 242 247 258 264 269 273 282 289 296 299 304 307
250 243 246 242 241 242 243 241 235 234 235 238 239 230 226 220 228 219 220 228 230 230 231 231 232 233 234 236 236 238 240 243 245 255 261 265 270 280 288 293 296 302 305
252 246 245 240 245 246 242 242 237 233 238 234 241 234 236 223 232 226 226 221 227 231 232 230 231 232 233 234 235 236 238 240 244 252 259 261 270 279 288 290 296 300 303
259 243 244 237 241 245 244 245 240 238 235 234 239 237 240 235 246 235 228 224 219 220 223 228 230 232 234 234 235 235 237 239 244 251 256 259 267 278 286 289 296 300 302
265 250 248 246 246 246 247 241 245 242 243 239 240 236 234 239 238 240 233 225 223 225 226 227 228 231 234 235 235 234 237 240 242 247 254 256 267 277 283 290 294 299 302
244 238 247 250 245 244 242 247 243 243 246 241 242 242 238 236 241 242 239 221 230 226 221 221 225 227 228 231 234 232 235 236 241 243 249 257 268 279 284 290 295 299 304
256 232 232 247 237 243 247 244 243 244 243 244 242 239 240 238 242 237 234 226 234 238 238 230 232 235 233 232 233 233 231 233 237 240 247 256 269 278 283 290 294 301 306
290 267 232 230 233 242 242 239 241 241 242 245 244 241 246 242 247 241 228 222 227 232 225 230 233 232 236 234 231 227 229 231 234 237 244 257 268 276 282 289 294 300 306
356 316 257 232 220 223 232 239 240 242 242 241 240 240 239 240 239 241 231 220 221 227 231 237 238 238 241 237 230 229 228 229 232 236 243 255 266 273 283 287 294 299 303
9 7 6 131 206 201 209 225 240 242 241 241 240 240 241 242 242 238 233 227 227 228 228 233 234 237 237 232 228 223 223 226 228 234 245 254 263 272 280 285 291 298 304
19 27 30 47 88 146 190 205 219 232 236 237 236 236 234 235 239 238 235 230 227 231 228 229 231 235 234 230 227 225 223 223 225 234 243 251 261 270 276 282 291 296 302
25 23 26 31 40 65 136 209 222 223 225 231 235 236 234 234 235 236 235 235 228 228 228 228 229 233 231 226 226 225 223 224 227 235 240 249 258 265 273 278 287 296 303
16 21 23 22 21 17 21 245 235 233 235 236 235 235 237 237 232 233 232 232 228 228 227 228 227 230 231 231 229 226 223 221 227 235 237 246 253 262 269 274 286 294 301
6 12 15 15 14 11 3 340 282 249 242 242 242 241 241 241 239 236 232 229 227 230 230 233 233 230 232 231 230 227 224 225 229 231 234 237 244 258 260 271 282 290 299
358 359 3 9 12 10 3 2 355 270 249 242 240 240 240 239 240 239 236 230 227 228 231 229 230 240 240 241 237 235 230 223 226 233 232 239 246 252 254 269 280 286 299
348 352 352 355 0 5 6 360 4 8 290 239 239 242 243 240 237 237 235 234 231 226 226 230 226 230 227 240 237 231 219 216 219 225 228 235 242 244 254 268 273 281 305
331 332 338 339 345 349 358 2 359 2 10 2 249 232 236 240 241 236 235 233 232 228 222 222 225 223 221 232 225 225 224 219 217 222 225 229 239 236 253 259 262 282 302
Wind_Speed_850mb
89 86 83 79 77 76 73 69 64 63 63 59 58 55 52 49 47 45 42 39 37 36 35 34 32 30 26 25 24 22 19 18 17 16 16 16 18 17 19 20 19 20 21
92 95 92 88 84 82 79 71 69 71 65 63 59 55 52 50 48 47 44 44 41 40 39 38 36 33 30 28 27 24 22 20 19 19 17 17 19 19 21 21 20 22 23
95 95 97 94 93 88 84 74 73 77 72 65 63 57 53 51 50 49 48 47 45 44 42 40 39 37 32 30 29 27 25 23 21 21 19 21 18 19 22 21 22 25 26
90 94 100 96 95 95 92 87 80 76 71 67 63 59 55 53 51 51 51 49 49 47 45 44 44 41 36 32 32 29 27 25 24 21 21 23 21 19 26 22 22 26 27
88 92 97 100 97 97 99 92 89 83 78 73 67 60 59 54 53 54 55 53 51 50 48 48 47 46 42 35 34 31 31 28 27 26 23 26 22 20 26 25 25 28 30
88 91 95 95 100 100 101 97 96 90 84 77 69 65 60 58 56 56 57 56 55 52 51 51 51 51 47 39 38 36 33 32 29 28 26 28 23 23 27 27 29 31 33
87 90 93 94 100 109 97 99 93 96 92 83 75 67 60 59 59 61 61 61 60 57 56 55 56 58 51 46 44 41 37 36 33 30 32 28 25 25 29 32 31 35 37
87 93 94 98 98 104 95 100 102 102 99 92 86 64 42 52 65 69 68 67 66 63 62 62 61 59 55 52 50 44 42 39 36 34 35 30 28 29 32 33 35 37 40
88 90 96 100 101 99 105 102 111 104 106 99 92 63 25 26 36 62 76 72 71 69 68 66 65 61 59 57 52 49 46 43 37 37 35 31 30 31 35 35 39 41 43
84 91 88 100 102 100 104 107 104 105 103 112 100 97 65 43 25 22 56 78 79 77 74 72 69 65 62 60 55 53 48 45 37 41 35 34 31 34 36 38 42 45 47
83 88 88 97 98 100 111 98 102 95 113 115 113 100 99 74 63 36 29 49 77 84 80 76 71 69 66 62 58 55 50 47 38 41 37 34 33 35 37 40 43 46 49
75 94 88 95 95 95 97 107 110 80 101 114 107 104 97 101 91 72 56 39 42 60 83 79 75 72 69 65 60 55 51 49 43 42 38 35 34 37 37 43 43 47 51
67 89 87 96 96 98 97 94 104 97 104 115 109 116 106 106 84 89 56 48 36 40 42 69 75 73 69 65 61 56 55 49 46 43 41 35 37 38 39 44 45 47 51
56 93 95 92 91 86 96 99 94 94 99 106 105 117 103 107 103 104 82 63 43 39 38 35 55 60 64 65 63 56 56 53 46 44 42 40 37 37 41 42 45 47 51
70 56 77 86 89 82 98 87 91 93 91 100 102 99 103 103 105 94 86 65 67 47 48 44 33 37 47 56 58 59 58 54 48 45 44 41 40 37 41 43 45 47 50
47 43 68 78 78 68 77 86 83 85 86 91 92 96 97 100 103 92 85 69 76 64 49 49 44 40 39 46 52 62 59 51 51 46 45 42 40 39 41 43 44 47 49
26 26 37 56 69 66 75 75 74 82 79 84 84 87 86 81 98 87 84 78 79 72 62 49 43 40 44 45 53 61 57 54 52 46 45 42 39 40 41 42 44 45 48
23 16 15 32 40 45 46 53 63 67 69 74 78 81 82 80 81 81 79 85 84 86 74 69 64 56 53 46 45 52 55 56 50 48 45 43 39 40 38 42 43 45 48
38 22 12 3 12 28 28 32 40 45 50 55 58 59 63 61 70 71 84 84 85 86 75 74 67 62 61 56 52 53 56 54 52 49 45 41 40 40 38 41 42 46 48
52 43 28 19 9 15 23 26 30 35 37 41 42 43 48 52 55 59 65 73 72 79 76 74 69 66 64 60 58 57 58 57 53 49 45 41 41 38 39 41 41 45 47
61 55 46 32 29 15 7 19 26 32 36 38 41 43 46 49 51 54 57 66 68 73 82 80 74 74 71 68 65 62 60 54 51 48 45 42 41 39 39 39 40 44 46
66 61 58 53 49 32 14 10 22 28 34 38 42 43 46 48 50 54 60 66 67 73 80 95 85 88 80 73 67 65 62 59 52 53 48 42 39 39 39 39 38 43 44
68 66 65 64 59 51 30 17 14 24 29 34 38 42 46 48 49 54 59 64 68 70 78 84 89 90 82 78 68 63 65 60 60 49 36 39 39 41 39 37 39 40 39
59 66 64 61 58 54 44 30 15 15 22 28 33 38 44 47 50 52 57 64 74 76 74 76 82 80 69 69 66 64 61 60 55 52 43 39 38 40 37 36 40 36 35
42 45 52 56 55 51 49 40 30 17 8 20 26 32 37 42 46 50 56 62 67 75 77 70 71 69 63 66 64 65 66 65 61 56 46 41 37 35 34 35 35 31 38
50 46 35 40 45 47 45 43 38 31 21 12 8 22 31 35 40 46 54 58 66 70 72 74 74 73 71 70 64 66 66 70 61 49 45 43 37 31 22 31 31 30 34
Wind_Direction_850mb
237 236 234 232 229 229 228 231 231 227 228 236 246 253 256 259 261 260 252 241 235 235 238 241 240 240 232 229 230 233 238 244 257 266 276 289 294 301 303 301 308 312 309
237 239 237 236 233 234 232 231 235 228 233 242 251 250 254 257 256 254 246 239 236 236 236 237 239 239 232 229 231 235 242 249 257 269 280 287 292 303 300 302 313 308 312
238 238 239 236 237 235 234 228 236 233 236 242 249 247 252 255 252 249 242 238 236 236 236 236 236 237 235 230 230 234 243 249 257 267 279 286 286 297 301 301 310 309 314
244 241 239 240 234 234 233 228 229 236 241 244 245 247 252 254 251 246 240 236 235 236 233 233 234 237 238 231 232 235 244 252 259 267 277 280 287 299 292 299 305 308 311
249 244 244 241 233 235 233 231 227 233 239 242 244 245 251 253 249 243 239 235 235 234 233 232 234 237 239 236 237 239 246 251 258 265 273 275 282 292 292 298 304 308 312
246 245 245 244 235 243 236 233 231 231 235 240 241 241 246 250 247 242 239 237 235 234 232 233 232 235 238 235 238 242 247 253 256 265 272 273 280 286 291 298 306 311 313
247 245 245 245 236 240 242 234 233 235 233 233 232 232 239 245 246 242 238 237 236 235 233 232 232 234 238 236 237 242 246 250 258 264 266 273 278 284 293 299 305 311 312
247 245 243 242 243 243 241 234 231 235 228 230 226 226 228 241 242 241 238 237 237 235 234 233 233 235 236 237 238 239 243 247 252 262 267 272 277 285 290 298 304 306 309
247 246 244 243 244 244 245 238 232 235 234 229 228 225 201 220 232 240 239 238 237 235 234 233 234 234 235 236 237 237 240 244 249 259 265 272 276 284 291 300 302 304 307
247 245 242 244 243 242 247 245 237 237 232 233 227 230 225 227 204 224 232 232 233 233 233 233 233 233 235 236 236 239 240 242 247 258 264 269 273 282 289 296 299 304 307
250 243 246 242 241 242 243 241 235 234 235 238 239 230 226 220 228 219 220 228 230 230 231 231 232 233 234 236 236 238 240 243 245 255 261 265 270 280 288 293 296 302 305
252 246 245 240 245 246 242 242 237 233 238 234 241 234 236 223 232 226 226 221 227 231 232 230 231 232 233 234 235 236 238 240 244 252 259 261 270 279 288 290 296 300 303
259 243 244 237 241 245 244 245 240 238 235 234 239 237 240 235 246 235 228 224 219 220 223 228 230 232 234 234 235 235 237 239 244 251 256 259 267 278 286 289 296 300 302
265 250 248 246 246 246 247 241 245 242 243 239 240 236 234 239 238 240 233 225 223 225 226 227 228 231 234 235 235 234 237 240 242 247 254 256 267 277 283 290 294 299 302
244 238 247 250 245 244 242 247 243 243 246 241 242 242 238 236 241 242 239 221 230 226 221 221 225 227 228 231 234 232 235 236 241 243 249 257 268 279 284 290 295 299 304
256 232 232 247 237 243 247 244 243 244 243 244 242 239 240 238 242 237 234 226 234 238 238 230 232 235 233 232 233 233 231 233 237 240 247 256 269 278 283 290 294 301 306
290 267 232 230 233 242 242 239 241 241 242 245 244 241 246 242 247 241 228 222 227 232 225 230 233 232 236 234 231 227 229 231 234 237 244 257 268 276 282 289 294 300 306
356 316 257 232 220 223 232 239 240 242 242 241 240 240 239 240 239 241 231 220 221 227 231 237 238 238 241 237 230 229 228 229 232 236 243 255 266 273 283 287 294 299 303
9 7 6 131 206 201 209 225 240 242 241 241 240 240 241 242 242 238 233 227 227 228 228 233 234 237 237 232 228 223 223 226 228 234 245 254 263 272 280 285 291 298 304
19 27 30 47 88 146 190 205 219 232 236 237 236 236 234 235 239 238 235 230 227 231 228 229 231 235 234 230 227 225 223 223 225 234 243 251 261 270 276 282 291 296 302
25 23 26 31 40 65 136 209 222 223 225 231 235 236 234 234 235 236 235 235 228 228 228 228 229 233 231 226 226 225 223 224 227 235 240 249 258 265 273 278 287 296 303
16 21 23 22 21 17 21 245 235 233 235 236 235 235 237 237 232 233 232 232 228 228 227 228 227 230 231 231 229 226 223 221 227 235 237 246 253 262 269 274 286 294 301
6 12 15 15 14 11 3 340 282 249 242 242 242 241 241 241 239 236 232 229 227 230 230 233 233 230 232 231 230 227 224 225 229 231 234 237 244 258 260 271 282 290 299
358 359 3 9 12 10 3 2 355 270 249 242 240 240 240 239 240 239 236 230 227 228 231 229 230 240 240 241 237 235 230 223 226 233 232 239 246 252 254 269 280 286 299
348 352 352 355 0 5 6 360 4 8 290 239 239 242 243 240 237 237 235 234 231 226 226 230 226 230 227 240 237 231 219 216 219 225 228 235 242 244 254 268 273 281 305
331 332 338 339 345 349 358 2 359 2 10 2 249 232 236 240 241 236 235 233 232 228 222 222 225 223 221 232 225 225 224 219 217 222 225 229 239 236 253 259 262 282 302